Regional Weather Roundup
Issued by NWS

Home | Current Version | Previous Version | Graphics & Text | Print | Product List | Glossary Off
Versions: 1 2 3 4 5 6 7 8 9 10 11 12 13 14 15 16 17 18 19 20 21 22 23 24 25 26 27 28 29 30 31 32 33 34 35 36 37 38 39 40 41 42 43 44 45 46 47 48 49 50

000
ASUS43 KTOP 212208
RWRKS

WEATHER ROUNDUP FOR KANSAS
NATIONAL WEATHER SERVICE GOODLAND KS
500 PM CDT SAT APR 21 2018

NOTE:  "FAIR" INDICATES FEW OR NO CLOUDS BELOW 12,000 FEET WITH NO
SIGNIFICANT WEATHER AND/OR OBSTRUCTIONS TO VISIBILITY.

KSZ001>006-013>018-027>032-041>047-212300-
NORTHWEST KANSAS

CITY           SKY/WX    TMP DP  RH WIND       PRES   REMARKS
GOODLAND       CLOUDY    42  38  85 N12       30.18R
HAYS           CLOUDY    45  43  93 E14       30.17R
HILL CITY      CLOUDY    46  43  89 NE8       30.18F
RUSSELL        CLOUDY    45  45 100 E13       30.16R
$$

KSZ061>065-074>080-084>089-212300-
SOUTHWEST KANSAS

CITY           SKY/WX    TMP DP  RH WIND       PRES   REMARKS
DODGE CITY     CLOUDY    46  43  89 NE13      30.12R
ELKHART        CLOUDY    47  44  87 N13       30.15S
GARDEN CITY    CLOUDY    45  41  87 N17       30.13S
GREAT BEND     CLOUDY    45  44  97 NE10      30.15R
LIBERAL        CLOUDY    48  43  82 N16       30.13R
PRATT          CLOUDY    45  44  94 E9        30.12S
$$

KSZ066>073-081>083-090>101-212300-
SOUTHEAST KANSAS

CITY           SKY/WX    TMP DP  RH WIND       PRES   REMARKS
CHANUTE        LGT RAIN  50  45  83 NW10      30.11R
COFFEYVILLE    RAIN      51  49  92 NW13      30.10R FOG
HUTCHINSON     CLOUDY    47  45  93 NE12      30.14R
MEDICINE LODGE   N/A     47  45  93 NE8       30.10F
NEWTON         LGT RAIN  44  42  93 NE14      30.14F
PARSONS        LGT RAIN  50  49  96 N14       30.10R
WICHITA INTL   RAIN      45  44  97 NE10      30.13R FOG
WICHITA JABRA  LGT RAIN  44  44 100 NE9       30.14R
WICHITA MCCONL RAIN      45  44  97 NE10      30.13
WINFIELD       RAIN      45  45 100 NE16      30.12F
$$

KSZ007>012-019>026-033>040-048>060-102>105-212300-
NORTHEAST KANSAS

CITY           SKY/WX    TMP DP  RH WIND       PRES   REMARKS
CONCORDIA      CLOUDY    45  40  82 NE9       30.18R
EMPORIA        LGT RAIN  46  42  86 N7        30.15S FOG
LAWRENCE       CLOUDY    61  37  41 N6        30.11F
MANHATTAN      CLOUDY    48  45  89 E6        30.17S
MARYSVILLE     CLOUDY    46  45  93 NE8       30.19S
OLATHE IND     CLOUDY    64  36  35 E10       30.11F
OLATHE EXE     CLOUDY    63  35  35 E10       30.10F
SALINA         LGT RAIN  47  45  93 NE9       30.18R
TOPEKA BILLARD CLOUDY    53  44  71 NW9       30.15S
TOPEKA FORBES  CLOUDY    53  43  68 N12       30.14S
$$



USA.gov is the U.S. government's official web portal to all federal, state and local government web resources and services.